1487300400.53,12190,13.13,73812.3,-5.07,-30.89,-32.07,0,*5D
1487300401.79,12191,13.13,73810.8,-5.07,-30.89,-32.35,0,*5D
1487300402.99,12192,13.13,73812.5,-5.05,-31.01,-32.13,0,*59
1487300404.24,12193,13.13,73808.8,-5.07,-30.89,-32.13,0,*5B
1487300405.5,12194,13.13,73814.3,-5.07,-30.83,-31.95,0,*5B
1487300406.73,12195,13.06,73808.0,-5.09,-30.77,-32.01,0,*51
1487300407.97,12196,13.13,73812.0,-5.09,-30.95,-32.13,0,*5D
1487300409.2,12197,13.13,73814.3,-5.09,-30.89,-32.13,0,*51
1487300410.43,12198,13.13,73812.0,-5.09,-30.89,-32.01,0,*5D
1487300411.66,12199,13.13,73814.8,-5.09,-30.89,-32.01,0,*5C
1487300412.92,12200,13.13,73816.3,-5.05,-30.89,-32.07,0,*55
1487300414.18,12201,13.13,73812.3,-5.07,-30.83,-31.95,0,*54
1487300415.44,12202,13.13,73812.8,-5.07,-30.89,-31.79,0,*5F
1487300416.7,12203,13.13,73818.8,-5.09,-30.89,-31.95,0,*52
1487300417.95,12204,13.13,73812.8,-5.09,-30.73,-31.95,0,*50
1487300419.21,12205,13.13,73812.5,-5.09,-30.77,-31.85,0,*54
1487300420.44,12206,13.13,73812.3,-5.07,-30.67,-31.79,0,*5B
1487300421.7,12207,13.13,73812.5,-5.07,-30.73,-31.79,0,*5F
1487300422.98,12208,13.13,73818.0,-5.07,-30.73,-31.91,0,*56
1487300424.25,12209,13.13,73816.0,-5.07,-30.73,-31.73,0,*5B
1487300425.49,12210,13.13,73814.5,-5.05,-30.73,-31.79,0,*5B
1487300426.77,12211,13.13,73814.8,-5.07,-30.73,-31.91,0,*5E
1487300428.05,12212,13.13,73814.5,-5.07,-30.73,-31.91,0,*5D
1487300429.28,12213,13.13,73814.3,-5.07,-30.67,-31.79,0,*5F
1487300430.51,12214,13.13,73814.5,-5.05,-30.67,-31.91,0,*5C
1487300431.77,12215,13.13,73812.0,-5.05,-30.73,-31.91,0,*58
1487300433.04,12216,13.13,73816.8,-5.05,-30.89,-32.07,0,*52
1487300434.29,12217,13.13,73812.8,-5.07,-30.89,-32.13,0,*54
1487300435.55,12218,13.13,73814.5,-5.05,-30.73,-31.95,0,*51
1487300436.82,12219,13.13,73812.8,-5.05,-30.89,-32.07,0,*5D
1487300438.05,12220,13.13,73814.5,-5.07,-30.83,-32.13,0,*5A
1487300439.31,12221,13.13,73814.0,-5.07,-30.83,-32.07,0,*5E
1487300440.56,12222,13.13,73818.5,-5.07,-30.89,-32.13,0,*52
1487300441.82,12223,13.13,73814.5,-5.07,-30.89,-32.13,0,*53
1487300443.08,12224,13.13,73818.5,-5.05,-30.73,-31.95,0,*5E
1487300444.33,12225,13.13,73822.3,-5.05,-30.55,-31.91,0,*5F
1487300445.58,12226,13.13,73812.3,-5.07,-30.55,-31.79,0,*58
1487300446.81,12227,13.13,73816.8,-5.05,-30.55,-31.79,0,*5B
1487300448.06,12228,13.13,73814.3,-5.05,-30.55,-31.91,0,*52
1487300449.28,12229,13.13,73818.0,-5.05,-30.55,-31.79,0,*55
1487300450.51,12230,13.13,73816.5,-5.05,-30.51,-31.79,0,*59
1487300451.74,12231,13.13,73812.3,-5.05,-30.55,-31.79,0,*5C
1487300453.0,12232,13.13,73818.3,-5.05,-30.55,-31.95,0,*5D
1487300454.26,12233,13.13,73816.3,-5.05,-30.73,-31.95,0,*58
1487300455.52,12234,13.13,73816.0,-5.05,-30.55,-31.95,0,*5B
1487300456.78,12235,13.13,73818.8,-5.07,-30.67,-32.07,0,*51
1487300458.03,12236,13.13,73818.8,-5.05,-30.55,-31.91,0,*5D
1487300459.28,12237,13.13,73818.8,-5.05,-30.51,-31.91,0,*58
1487300460.54,12238,13.13,73814.3,-5.05,-30.51,-31.91,0,*57
1487300461.77,12239,13.13,73818.3,-5.05,-30.39,-31.79,0,*5E
1487300463.0,12240,13.13,73818.5,-5.05,-30.51,-31.79,0,*5E
1487300464.26,12241,13.13,73816.3,-5.07,-30.39,-31.73,0,*59
1487300465.54,12242,13.13,73812.8,-5.07,-30.51,-31.91,0,*58
1487300466.79,12243,13.13,73812.3,-5.07,-30.23,-31.73,0,*50
1487300468.06,12244,13.13,73816.5,-5.07,-30.39,-31.73,0,*5C
1487300469.31,12245,13.13,73818.5,-5.07,-30.23,-31.61,0,*55
1487300470.58,12246,13.13,73818.8,-5.07,-30.17,-31.45,0,*57
1487300471.83,12247,13.13,73814.5,-5.05,-30.05,-31.57,0,*54
1487300473.08,12248,13.13,73816.0,-5.05,-30.05,-31.57,0,*5B
1487300474.34,12249,13.13,73812.5,-5.05,-30.01,-31.57,0,*5E
1487300475.59,12250,13.13,73816.0,-5.03,-30.11,-31.51,0,*57
1487300476.84,12251,13.13,73816.3,-5.05,-30.01,-31.57,0,*57
1487300478.1,12252,13.13,73818.5,-5.05,-30.01,-31.57,0,*54
1487300479.34,12253,13.13,73814.5,-5.05,-30.01,-31.45,0,*56
1487300480.6,12254,13.13,73816.0,-5.03,-29.95,-31.39,0,*59
1487300481.86,12255,13.13,73814.5,-5.03,-29.95,-31.51,0,*56
1487300483.1,12256,13.13,73818.3,-5.05,-30.01,-31.45,0,*53
1487300484.33,12257,13.13,73816.8,-5.05,-30.01,-31.45,0,*52
1487300485.58,12258,13.13,73816.0,-5.05,-29.89,-31.45,0,*55
1487300486.83,12259,13.13,73818.3,-5.05,-29.89,-31.45,0,*54
1487300488.09,12260,13.13,73814.5,-5.05,-29.89,-31.57,0,*5D
1487300489.37,12261,13.13,73818.0,-5.07,-29.89,-31.57,0,*5E
1487300490.63,12262,13.13,73818.0,-5.03,-29.83,-31.39,0,*5B
1487300491.88,12263,13.13,73814.5,-5.05,-29.89,-31.45,0,*5D
1487300493.1,12264,13.13,73816.8,-5.05,-29.83,-31.45,0,*50
1487300494.32,12265,13.13,73818.3,-5.05,-29.83,-31.45,0,*51
1487300495.55,12266,13.13,73816.8,-5.05,-29.79,-31.57,0,*54
1487300496.77,12267,13.13,73818.0,-5.05,-29.67,-31.29,0,*53
1487300498.03,12268,13.13,73818.0,-5.07,-29.79,-31.39,0,*50
1487300499.27,12269,13.13,73816.0,-5.05,-29.67,-31.39,0,*5C
1487300500.51,12270,13.13,73816.0,-5.05,-29.61,-31.39,0,*52
1487300501.77,12271,13.13,73814.5,-5.05,-29.51,-31.39,0,*50
1487300503.01,12272,13.13,73812.0,-5.05,-29.61,-31.39,0,*50
1487300504.28,12273,13.06,73812.8,-5.05,-29.51,-31.39,0,*52
1487300505.52,12274,13.13,73818.3,-5.05,-29.61,-31.39,0,*56
1487300506.79,12275,13.06,73812.3,-5.05,-29.51,-31.39,0,*54
1487300508.04,12276,13.13,73818.3,-5.05,-29.51,-31.29,0,*56
1487300509.26,12277,13.13,73816.5,-5.05,-29.45,-31.29,0,*52
1487300510.53,12278,13.06,73812.3,-5.05,-29.51,-31.39,0,*59
1487300511.77,12279,13.13,73818.3,-5.05,-29.35,-31.29,0,*5B
1487300513.01,12280,13.06,73812.3,-5.05,-29.45,-31.39,0,*5B
1487300514.26,12281,13.06,73814.3,-5.05,-29.45,-31.23,0,*51
1487300515.54,12282,13.13,73814.8,-5.07,-29.29,-31.23,0,*5A
1487300516.8,12283,13.13,73814.0,-5.07,-29.29,-31.29,0,*51
1487300518.06,12284,13.13,73814.8,-5.07,-29.17,-31.29,0,*5B
1487300519.3,12285,13.13,73812.8,-5.05,-29.29,-31.29,0,*55
1487300520.56,12286,13.13,73812.0,-5.05,-29.13,-31.23,0,*55
1487300521.84,12287,13.13,73814.8,-5.07,-29.17,-31.39,0,*59
1487300523.12,12288,13.13,73812.0,-5.07,-29.29,-31.39,0,*5B
1487300524.36,12289,13.13,73816.3,-5.05,-29.13,-31.29,0,*50
1487300525.62,12290,13.13,73816.5,-5.07,-29.17,-31.29,0,*5E
1487300526.86,12291,13.13,73814.3,-5.05,-29.17,-31.29,0,*5D
1487300528.12,12292,13.13,73816.5,-5.07,-29.13,-31.29,0,*58
1487300529.4,12293,13.13,73816.3,-5.07,-29.13,-31.39,0,*58
1487300530.66,12294,13.13,73818.0,-5.07,-29.01,-31.29,0,*5D
1487300531.95,12295,13.06,73814.3,-5.07,-29.01,-31.23,0,*56
1487300533.19,12296,13.13,73818.8,-5.05,-28.85,-31.11,0,*5B
1487300534.44,12297,13.13,73818.8,-5.03,-28.75,-31.05,0,*56
1487300535.7,12298,13.13,73816.5,-5.07,-28.85,-31.11,0,*57
1487300536.97,12299,13.13,73818.0,-5.07,-28.85,-31.23,0,*57
1487300538.23,12300,13.13,73818.0,-5.05,-28.79,-31.11,0,*56
1487300539.51,12301,13.13,73816.5,-5.07,-28.75,-31.11,0,*59
1487300540.77,12302,13.13,73816.8,-5.07,-28.63,-31.01,0,*5C
1487300542.01,12303,13.13,73816.8,-5.07,-28.31,-30.67,0,*5B
1487300543.3,12304,13.06,73816.3,-5.07,-28.43,-30.73,0,*5C
1487300544.58,12305,13.06,73814.8,-5.07,-28.43,-30.89,0,*58
1487300545.86,12306,13.13,73816.8,-5.07,-28.47,-30.89,0,*5F
1487300547.15,12307,13.06,73814.0,-5.07,-28.47,-30.89,0,*5E
1487300548.4,12308,13.06,73812.8,-5.07,-28.43,-31.01,0,*54
1487300549.69,12309,13.06,73812.8,-5.07,-28.43,-30.89,0,*54
1487300550.95,12310,13.13,73818.0,-5.05,-28.47,-30.89,0,*5A
1487300552.21,12311,13.06,73816.0,-5.07,-28.15,-30.73,0,*5B
1487300553.48,12312,13.13,73818.5,-5.09,-28.21,-30.77,0,*55
1487300554.72,12313,13.13,73820.0,-5.09,-28.15,-30.73,0,*57
1487300555.99,12314,13.13,73818.5,-5.09,-28.05,-30.73,0,*51
1487300557.25,12315,13.13,73820.0,-5.07,-27.93,-30.55,0,*5A
1487300558.53,12316,13.13,73818.0,-5.07,-27.99,-30.51,0,*57
1487300559.77,12317,13.13,73816.0,-5.09,-28.15,-30.77,0,*57
1487300561.03,12318,13.13,73818.8,-5.09,-28.21,-30.95,0,*53
1487300562.29,12319,13.13,73816.0,-5.09,-27.99,-30.77,0,*52
1487300563.56,12320,13.06,73818.3,-5.09,-27.99,-30.73,0,*5C
1487300564.8,12321,13.06,73816.8,-5.07,-27.93,-30.67,0,*5C
1487300566.06,12322,13.13,73816.0,-5.07,-27.93,-30.73,0,*5A
1487300567.33,12323,13.06,73818.5,-5.09,-28.05,-30.89,0,*50
1487300568.59,12324,13.06,73816.5,-5.09,-27.99,-30.73,0,*58
1487300569.86,12325,13.06,73818.8,-5.09,-27.99,-30.77,0,*5D
1487300571.13,12326,13.06,73818.3,-5.09,-27.99,-30.77,0,*5E
1487300572.39,12327,13.06,73818.8,-5.11,-27.89,-30.61,0,*50
1487300573.65,12328,13.13,73818.5,-5.09,-27.83,-30.61,0,*5C
1487300574.88,12329,13.13,73820.0,-5.09,-27.71,-30.55,0,*57
1487300576.12,12330,13.13,73816.8,-5.11,-27.71,-30.67,0,*57
1487300577.38,12331,13.06,73816.3,-5.11,-27.55,-30.61,0,*56
1487300578.67,12332,13.06,73816.0,-5.11,-27.39,-30.61,0,*5F
1487300579.92,12333,13.06,73818.5,-5.11,-27.51,-30.51,0,*53
1487300581.18,12334,13.13,73816.8,-5.11,-27.51,-30.51,0,*54
1487300582.44,12335,13.06,73818.0,-5.11,-27.51,-30.51,0,*55
1487300583.72,12336,13.13,73816.8,-5.11,-27.39,-30.61,0,*5B
1487300584.94,12337,13.06,73816.5,-5.09,-27.29,-30.45,0,*54
1487300586.19,12338,13.06,73816.5,-5.11,-27.19,-30.45,0,*51
1487300587.42,12339,13.13,73818.0,-5.11,-27.07,-30.45,0,*5F
1487300588.66,12340,13.06,73816.5,-5.09,-26.97,-30.23,0,*50
1487300589.89,12341,13.06,73816.5,-5.11,-27.03,-30.27,0,*50
1487300591.12,12342,13.06,73814.3,-5.09,-26.87,-30.05,0,*57
1487300592.38,12343,13.06,73818.8,-5.11,-26.77,-30.11,0,*55
1487300593.6,12344,13.06,73818.5,-5.11,-26.87,-30.27,0,*58
1487300594.86,12345,13.13,73820.8,-5.11,-26.93,-30.27,0,*5C
1487300596.09,12346,13.06,73816.3,-5.11,-26.87,-30.27,0,*5A
1487300597.33,12347,13.13,73820.0,-5.09,-26.65,-30.05,0,*5E
1487300598.59,12348,13.06,73816.0,-5.11,-26.77,-30.27,0,*5B
1487300599.85,12349,13.13,73818.8,-5.11,-26.77,-30.33,0,*5F
1487300601.11,12350,13.06,73816.3,-5.09,-26.81,-30.39,0,*5D
1487300602.38,12351,13.06,73816.8,-5.11,-26.65,-30.17,0,*53
1487300603.61,12352,13.06,73818.0,-5.11,-26.49,-30.11,0,*58
1487300604.88,12353,13.06,73816.5,-5.11,-26.65,-30.17,0,*51
1487300606.11,12354,13.06,73816.8,-5.11,-26.39,-30.11,0,*59
1487300607.36,12355,13.06,73816.3,-5.11,-26.33,-30.11,0,*52
1487300608.6,12356,13.06,73816.8,-5.11,-26.49,-30.27,0,*59
1487300609.83,12357,13.06,73818.5,-5.09,-26.55,-30.27,0,*5C
1487300611.04,12358,13.13,73818.3,-5.09,-26.61,-30.27,0,*54
1487300612.27,12359,13.06,73816.3,-5.11,-26.49,-30.33,0,*53
1487300613.51,12360,13.13,73818.8,-5.09,-26.29,-30.23,0,*57
1487300614.75,12361,13.06,73816.0,-5.09,-26.33,-30.27,0,*59
1487300616.01,12362,13.06,73818.5,-5.11,-26.33,-30.33,0,*56
1487300617.27,12363,13.06,73818.5,-5.11,-26.33,-30.27,0,*52
1487300618.5,12364,13.06,73814.8,-5.11,-26.07,-30.11,0,*57
1487300619.73,12365,13.06,73818.3,-5.11,-26.07,-30.11,0,*56
1487300620.97,12366,13.06,73818.3,-5.11,-26.03,-30.11,0,*51
1487300622.2,12367,13.06,73816.0,-5.11,-26.03,-30.11,0,*50
1487300623.47,12368,13.06,73818.5,-5.11,-26.03,-30.17,0,*59
1487300624.73,12369,13.06,73818.5,-5.11,-26.03,-30.01,0,*5F
1487300625.99,12370,13.06,73818.0,-5.11,-25.87,-30.01,0,*58
1487300627.25,12371,13.06,73814.3,-5.11,-25.87,-30.01,0,*59
1487300628.51,12372,13.06,73818.8,-5.11,-25.87,-30.01,0,*5A
1487300629.75,12373,13.06,73814.3,-5.09,-25.71,-29.95,0,*5E
1487300631.0,12374,13.06,73816.5,-5.11,-25.71,-30.11,0,*54
1487300632.29,12375,13.06,73816.3,-5.11,-25.55,-29.89,0,*5A
1487300633.55,12376,13.06,73818.3,-5.11,-25.49,-29.89,0,*54
1487300634.81,12377,13.13,73820.5,-5.11,-25.65,-30.01,0,*53
1487300636.04,12378,13.06,73814.0,-5.11,-25.65,-29.95,0,*59
1487300637.27,12379,13.06,73816.0,-5.09,-25.29,-29.67,0,*54
1487300638.5,12380,13.06,73816.0,-5.11,-25.39,-29.79,0,*55
1487300639.75,12381,13.06,73818.0,-5.11,-25.35,-29.89,0,*57
1487300641.0,12382,13.06,73816.8,-5.09,-25.29,-29.73,0,*55
1487300642.23,12383,13.06,73818.3,-5.11,-25.19,-29.83,0,*51
1487300643.46,12384,13.06,73812.5,-5.09,-25.35,-30.01,0,*53
1487300644.71,12385,13.06,73818.0,-5.09,-25.45,-30.05,0,*51
1487300645.93,12386,13.06,73814.8,-5.11,-25.39,-30.11,0,*55
1487300647.14,12387,13.06,73818.5,-5.09,-25.09,-29.79,0,*58
1487300648.39,12388,13.06,73818.8,-5.09,-25.03,-29.73,0,*57
1487300649.59,12389,13.06,73818.5,-5.09,-25.19,-29.83,0,*52
1487300650.85,12390,13.06,73816.5,-5.09,-25.03,-29.73,0,*5E
1487300652.08,12391,13.06,73816.0,-5.09,-25.03,-29.83,0,*50
1487300653.32,12392,13.13,73820.8,-5.09,-25.03,-29.83,0,*53
1487300654.52,12393,13.06,73818.3,-5.09,-24.97,-29.95,0,*59
1487300655.78,12394,13.06,73814.8,-5.09,-25.03,-30.05,0,*53
1487300657.01,12395,13.06,73816.3,-5.09,-25.03,-29.95,0,*53
1487300658.26,12396,13.06,73818.0,-5.07,-24.97,-30.05,0,*53
1487300659.51,12397,13.06,73818.8,-5.07,-24.83,-29.79,0,*54
1487300660.72,12398,13.06,73818.5,-5.09,-24.97,-29.95,0,*52
1487300661.94,12399,13.06,73818.8,-5.09,-25.03,-30.11,0,*5B
1487300663.19,12400,13.06,73818.5,-5.07,-24.97,-30.05,0,*5B
1487300664.44,12401,13.06,73814.8,-5.07,-24.93,-30.01,0,*5A
1487300665.69,12402,13.06,73816.5,-5.07,-24.93,-30.01,0,*59
1487300666.94,12403,13.06,73814.8,-5.07,-24.97,-30.05,0,*58
1487300668.17,12404,13.06,73816.0,-5.07,-25.09,-30.23,0,*5D
1487300669.4,12405,13.06,73814.0,-5.09,-25.03,-30.27,0,*5C
1487300670.64,12406,13.06,73818.5,-5.09,-25.03,-30.27,0,*5F
1487300671.89,12407,13.06,73816.8,-5.09,-25.03,-30.39,0,*51
1487300673.15,12408,13.06,73818.0,-5.09,-25.03,-30.39,0,*5E
1487300674.37,12409,13.06,73818.3,-5.09,-24.97,-30.39,0,*53
1487300675.6,12410,13.06,73812.8,-5.09,-24.97,-30.39,0,*5B
1487300676.86,12411,13.06,73816.3,-5.09,-24.87,-30.39,0,*5B
1487300678.09,12412,13.06,73814.8,-5.09,-24.83,-30.23,0,*57
1487300679.33,12413,13.06,73814.0,-5.09,-24.83,-30.27,0,*52
1487300680.57,12414,13.06,73812.5,-5.09,-24.83,-30.45,0,*51
1487300681.77,12415,13.06,73814.8,-5.09,-24.97,-30.45,0,*55
1487300682.98,12416,13.06,73814.3,-5.09,-24.97,-30.45,0,*56
1487300684.23,12417,13.06,73814.0,-5.09,-24.87,-30.39,0,*5D
1487300685.52,12418,13.06,73812.8,-5.07,-24.83,-30.51,0,*56
1487300686.75,12419,13.06,73816.3,-5.09,-24.67,-30.27,0,*52
1487300687.99,12420,13.06,73818.5,-5.09,-24.83,-30.45,0,*56
1487300689.22,12421,13.06,73814.3,-5.11,-24.77,-30.45,0,*55
1487300690.46,12422,13.06,73816.3,-5.09,-24.67,-30.45,0,*5E
1487300691.69,12423,13.06,73818.5,-5.09,-24.57,-30.39,0,*57
1487300692.91,12424,13.06,73818.0,-5.09,-24.51,-30.23,0,*5D
1487300694.14,12425,13.06,73816.3,-5.09,-24.67,-30.45,0,*59
1487300695.4,12426,13.06,73816.5,-5.09,-24.67,-30.39,0,*51
1487300696.61,12427,13.06,73818.3,-5.09,-24.57,-30.45,0,*58
1487300697.85,12428,13.06,73816.5,-5.07,-24.47,-30.33,0,*59
1487300699.11,12429,13.06,73818.3,-5.09,-24.67,-30.39,0,*5E
1487300700.34,12430,13.06,73814.0,-5.09,-24.51,-30.39,0,*53
1487300701.61,12431,13.06,73816.8,-5.07,-24.51,-30.39,0,*5C
1487300702.87,12432,13.06,73814.0,-5.07,-24.51,-30.39,0,*5F
1487300704.1,12433,13.06,73814.8,-5.05,-24.61,-30.51,0,*51
1487300705.37,12434,13.06,73814.5,-5.07,-24.51,-30.51,0,*57
1487300706.63,12435,13.06,73814.0,-5.07,-24.61,-30.55,0,*51
1487300707.88,12436,13.06,73816.5,-5.07,-24.61,-30.51,0,*56
1487300709.14,12437,13.06,73816.8,-5.07,-24.61,-30.55,0,*53
1487300710.4,12438,13.06,73814.5,-5.07,-24.61,-30.51,0,*58
1487300711.66,12439,13.06,73818.0,-5.07,-24.51,-30.55,0,*5E
1487300712.9,12440,13.06,73818.5,-5.05,-24.61,-30.55,0,*51
1487300714.16,12441,13.06,73816.8,-5.07,-24.77,-30.73,0,*51
1487300715.42,12442,13.06,73814.3,-5.07,-24.61,-30.51,0,*55
1487300716.68,12443,13.06,73814.3,-5.07,-24.61,-30.55,0,*50
1487300717.92,12444,13.06,73816.0,-5.07,-24.61,-30.67,0,*56
1487300719.16,12445,13.06,73814.8,-5.07,-24.61,-30.67,0,*57
1487300720.42,12446,13.06,73814.0,-5.07,-24.51,-30.51,0,*52
1487300721.66,12447,13.06,73810.5,-5.05,-24.61,-30.55,0,*56
1487300722.9,12448,13.06,73812.5,-5.05,-24.61,-30.73,0,*5D
1487300724.17,12449,13.06,73814.0,-5.05,-24.67,-30.73,0,*5A
1487300725.39,12450,13.06,73816.5,-5.05,-24.51,-30.67,0,*52
1487300726.66,12451,13.06,73814.3,-5.03,-24.47,-30.61,0,*54
1487300727.91,12452,13.06,73814.0,-5.05,-24.67,-30.83,0,*5F
1487300729.15,12453,13.06,73814.0,-5.07,-24.61,-30.83,0,*5A
1487300730.39,12454,13.06,73812.0,-5.05,-24.61,-30.89,0,*55
1487300731.63,12455,13.06,73814.3,-5.05,-24.83,-31.05,0,*5D
1487300732.85,12456,13.06,73814.5,-5.05,-24.77,-31.01,0,*51
1487300734.12,12457,13.06,73816.0,-5.05,-24.83,-30.89,0,*5A
1487300735.37,12458,13.06,73814.3,-5.07,-24.67,-31.01,0,*5C
1487300736.64,12459,13.06,73814.0,-5.05,-24.67,-30.89,0,*5E
1487300737.89,12460,13.06,73812.8,-5.05,-24.67,-30.83,0,*5E
1487300739.15,12461,13.06,73814.0,-5.07,-24.77,-30.89,0,*56
1487300740.42,12462,13.06,73812.0,-5.07,-24.61,-30.89,0,*52
1487300741.68,12463,13.06,73812.5,-5.05,-24.67,-30.89,0,*57
1487300742.92,12464,13.06,73816.3,-5.05,-24.83,-31.05,0,*5F
1487300744.16,12465,13.06,73814.8,-5.05,-24.83,-31.01,0,*5A
1487300745.39,12466,13.06,73814.0,-5.07,-24.77,-31.01,0,*50
1487300746.64,12467,13.06,73814.0,-5.05,-24.67,-30.83,0,*59
1487300747.89,12468,13.06,73814.0,-5.05,-24.47,-30.61,0,*58
1487300749.13,12469,13.06,73814.0,-5.07,-24.61,-30.83,0,*53
1487300750.35,12470,13.06,73812.3,-5.05,-24.61,-30.83,0,*59
1487300751.6,12471,13.06,73816.5,-5.05,-24.77,-30.89,0,*55
1487300752.86,12472,13.06,73812.8,-5.05,-24.67,-30.89,0,*57
1487300754.1,12473,13.06,73810.0,-5.03,-24.61,-30.83,0,*5C
1487300755.34,12474,13.06,73812.5,-5.03,-24.61,-30.83,0,*5B
1487300756.62,12475,13.06,73812.8,-5.03,-24.71,-30.83,0,*5B
1487300757.87,12476,13.06,73812.0,-5.03,-24.87,-31.01,0,*5A
1487300759.07,12477,13.06,73814.0,-5.05,-24.93,-31.05,0,*5C
1487300760.31,12478,13.06,73812.8,-5.03,-24.77,-31.01,0,*5B
1487300761.54,12479,13.06,73816.0,-5.05,-24.83,-31.01,0,*57
1487300762.82,12480,13.06,73812.3,-5.03,-24.71,-30.83,0,*51
1487300764.07,12481,13.06,73814.0,-5.03,-24.87,-31.01,0,*52
1487300765.31,12482,13.06,73816.8,-5.03,-24.77,-30.83,0,*55
1487300766.57,12483,13.06,73814.8,-5.03,-24.77,-30.95,0,*53
1487300767.8,12484,13.06,73812.5,-5.03,-24.77,-31.01,0,*58
1487300769.03,12485,13.06,73812.3,-5.01,-24.87,-31.01,0,*54
1487300770.26,12486,13.06,73810.8,-5.03,-24.77,-31.01,0,*5A
1487300771.52,12487,13.06,73812.3,-5.03,-24.87,-31.05,0,*50
1487300772.74,12488,13.06,73814.8,-5.01,-24.87,-31.05,0,*5D
1487300774.0,12489,13.06,73814.0,-5.03,-24.87,-31.17,0,*5D
1487300775.26,12490,13.06,73812.3,-5.03,-24.87,-31.17,0,*55
1487300776.48,12491,13.06,73814.5,-5.03,-24.93,-31.05,0,*52
1487300777.71,12492,13.06,73814.8,-5.03,-24.77,-31.05,0,*5B
1487300778.92,12493,13.06,73812.8,-5.01,-24.77,-31.01,0,*5C
1487300780.15,12494,13.06,73818.5,-5.01,-24.87,-31.05,0,*50
1487300781.35,12495,13.06,73814.0,-5.01,-24.77,-31.05,0,*5E
1487300782.61,12496,13.06,73814.3,-5.03,-24.87,-31.05,0,*50
1487300783.84,12497,13.06,73816.0,-5.01,-24.87,-31.17,0,*50
1487300785.07,12498,13.06,73814.3,-5.01,-24.87,-31.17,0,*5F
1487300786.27,12499,13.06,73814.0,-5.01,-24.93,-31.17,0,*5B
1487300787.5,12500,13.06,73816.3,-5.01,-25.03,-31.33,0,*54
1487300788.7,12501,13.06,73812.8,-5.01,-25.09,-31.33,0,*5F
1487300789.96,12502,13.06,73814.5,-5.01,-25.03,-31.23,0,*57
1487300791.22,12503,13.06,73812.8,-5.01,-25.03,-31.23,0,*56
1487300792.44,12504,13.06,73816.5,-5.01,-25.03,-31.33,0,*50
1487300793.64,12505,13.06,73814.5,-5.01,-25.09,-31.33,0,*5B
1487300794.91,12506,13.06,73812.8,-4.97,-25.03,-31.29,0,*57
1487300796.17,12507,13.06,73808.5,-4.97,-25.03,-31.17,0,*5B
1487300797.4,12508,13.06,73816.0,-4.97,-25.19,-31.29,0,*52
1487300798.64,12509,13.06,73812.3,-4.97,-25.35,-31.45,0,*57
1487300799.87,12510,13.06,73810.5,-5.01,-25.29,-31.45,0,*5C
1487300801.1,12511,13.06,73812.0,-5.01,-25.35,-31.39,0,*5B
1487300802.33,12512,13.06,73814.3,-5.01,-25.39,-31.39,0,*54
1487300803.55,12513,13.06,73812.8,-5.01,-25.19,-31.39,0,*57
1487300804.78,12514,13.06,73814.3,-5.01,-25.35,-31.39,0,*5E
1487300806.0,12515,13.06,73814.5,-5.01,-25.23,-31.39,0,*58
1487300807.23,12516,13.06,73814.0,-5.01,-25.39,-31.51,0,*5E
1487300808.46,12517,13.06,73812.8,-5.01,-25.49,-31.57,0,*5E
1487300809.69,12518,13.06,73808.5,-5.01,-25.55,-31.67,0,*5F
1487300810.92,12519,13.06,73814.8,-5.01,-25.61,-31.57,0,*5A
1487300812.18,12520,13.06,73814.5,-4.97,-25.65,-31.61,0,*5F
1487300813.4,12521,13.06,73812.3,-5.01,-25.75,-31.67,0,*57
1487300814.66,12522,13.06,73814.8,-5.01,-25.75,-31.85,0,*58
1487300815.91,12523,13.06,73812.5,-5.01,-25.71,-31.57,0,*52
1487300817.14,12524,13.06,73812.0,-5.01,-25.75,-31.67,0,*52
1487300818.42,12525,13.06,73812.5,-5.03,-25.75,-31.85,0,*5D
1487300819.7,12526,13.06,73812.0,-5.03,-25.75,-31.73,0,*57
1487300820.95,12527,13.06,73814.0,-5.01,-25.75,-31.85,0,*5D
1487300822.21,12528,13.06,73814.8,-5.01,-25.75,-31.85,0,*52
1487300823.46,12529,13.06,73812.8,-5.03,-25.91,-31.91,0,*5E
1487300824.72,12530,13.06,73814.0,-5.03,-26.03,-31.91,0,*5E
1487300825.99,12531,13.06,73816.0,-5.03,-26.03,-31.85,0,*5A
1487300827.23,12532,13.06,73814.0,-5.03,-25.91,-31.73,0,*58
1487300828.49,12533,13.06,73812.8,-5.03,-26.07,-31.91,0,*59
1487300829.73,12534,13.06,73814.3,-5.01,-26.03,-31.91,0,*58
1487300830.98,12535,13.06,73818.3,-5.03,-25.91,-31.73,0,*5F
1487300832.22,12536,13.06,73814.0,-5.03,-25.91,-31.73,0,*5C
1487300833.49,12537,13.06,73814.3,-5.03,-26.03,-31.85,0,*5C
1487300834.72,12538,13.06,73814.3,-5.05,-26.23,-32.07,0,*5E
1487300835.95,12539,13.06,73812.3,-5.05,-26.23,-32.07,0,*5F
1487300837.21,12540,13.06,73814.0,-5.07,-26.23,-31.95,0,*5B
1487300838.44,12541,13.06,73814.5,-5.05,-26.29,-31.79,0,*50
1487300839.67,12542,13.06,73812.8,-5.05,-26.13,-31.79,0,*5A
1487300840.91,12543,13.06,73812.3,-5.05,-26.13,-31.79,0,*5B
1487300842.11,12544,13.06,73816.3,-5.05,-26.23,-31.79,0,*5F
1487300843.31,12545,13.06,73818.0,-5.05,-26.23,-31.79,0,*5E
1487300844.54,12546,13.06,73816.5,-5.07,-26.23,-31.79,0,*5F
1487300845.77,12547,13.06,73818.5,-5.05,-26.23,-31.91,0,*5A
1487300847.02,12548,13.06,73812.5,-5.07,-26.29,-31.79,0,*5B
1487300848.28,12549,13.06,73814.5,-5.07,-26.29,-31.79,0,*5A
1487300849.51,12550,13.06,73816.5,-5.05,-26.45,-31.91,0,*5C
1487300850.77,12551,13.06,73812.0,-5.07,-26.45,-31.91,0,*5F
1487300852.0,12552,13.06,73814.3,-5.07,-26.39,-31.79,0,*51
1487300853.25,12553,13.06,73812.8,-5.05,-26.55,-31.91,0,*5E
1487300854.53,12554,13.06,73814.8,-5.07,-26.55,-31.91,0,*5B
1487300855.76,12555,13.06,73812.3,-5.07,-26.45,-31.79,0,*5D
1487300857.02,12556,13.06,73816.5,-5.07,-26.61,-31.95,0,*5A
1487300858.3,12557,13.06,73814.8,-5.07,-26.55,-31.95,0,*5C
1487300859.55,12558,13.06,73812.8,-5.07,-26.55,-31.79,0,*51
1487300860.83,12559,13.06,73818.0,-5.07,-26.55,-31.73,0,*5A
1487300862.08,12560,13.06,73812.0,-5.07,-26.45,-31.61,0,*52
1487300863.34,12561,13.06,73812.5,-5.07,-26.39,-31.73,0,*5B
1487300864.6,12562,13.06,73816.3,-5.07,-26.39,-31.61,0,*5B
1487300865.85,12563,13.06,73812.3,-5.07,-26.45,-31.61,0,*51
1487300867.11,12564,13.06,73814.3,-5.07,-26.39,-31.61,0,*5D
1487300868.34,12565,13.06,73810.5,-5.07,-26.23,-31.45,0,*51
1487300869.6,12566,13.06,73808.0,-5.07,-26.29,-31.45,0,*58
1487300870.84,12567,13.06,73810.5,-5.05,-26.39,-31.57,0,*59
1487300872.05,12568,13.06,73812.5,-5.05,-26.39,-31.45,0,*55
1487300873.29,12569,13.06,73812.5,-5.05,-26.45,-31.57,0,*5C
1487300874.54,12570,13.06,73812.8,-5.07,-26.45,-31.57,0,*56
1487300875.77,12571,13.06,73814.5,-5.07,-26.45,-31.45,0,*54
1487300877.05,12572,13.06,73814.5,-5.03,-26.55,-31.51,0,*57
1487300878.33,12573,13.06,73814.3,-5.07,-26.55,-31.61,0,*51
1487300879.57,12574,13.06,73812.3,-5.07,-26.39,-31.45,0,*5A
1487300880.81,12575,13.06,73812.0,-5.07,-26.45,-31.45,0,*50
1487300882.04,12576,13.06,73812.3,-5.07,-26.39,-31.45,0,*58
1487300883.26,12577,13.06,73814.3,-5.05,-26.45,-31.45,0,*50
1487300884.5,12578,13.06,73814.5,-5.07,-26.39,-31.45,0,*56
1487300885.73,12579,13.06,73812.5,-5.07,-26.61,-31.45,0,*5A
1487300886.97,12580,13.06,73814.0,-5.05,-26.65,-31.57,0,*59
1487300888.2,12581,13.06,73814.0,-5.05,-26.61,-31.57,0,*5C
1487300889.42,12582,13.06,73812.5,-5.05,-26.61,-31.45,0,*5C
1487300890.7,12583,13.06,73814.8,-5.07,-26.77,-31.73,0,*5D
1487300891.96,12584,13.06,73814.0,-5.05,-26.81,-31.73,0,*51
1487300893.25,12585,13.06,73814.3,-5.07,-26.77,-31.61,0,*58
1487300894.52,12586,13.06,73812.8,-5.05,-26.77,-31.61,0,*59
1487300895.78,12587,13.06,73812.8,-5.05,-26.81,-31.73,0,*52
1487300897.06,12588,13.06,73812.8,-5.03,-26.71,-31.51,0,*54
1487300898.32,12589,13.06,73812.0,-5.05,-26.77,-31.61,0,*56